Time,TemperatureF,DewpointF,PressureIn,WindDirection,WindDirectionDegrees,WindSpeedMPH,WindSpeedGustMPH,Humidity,HourlyPrecipIn,Conditions,Clouds,dailyrainin,SolarRadiationWatts/m^2,SoftwareType,DateUTC
2013-06-26 00:00:00,80.9,68.9,29.80,West,263,4.0,12.0,67,0.00,,BKN250,0.00,0.00,VWS V14.01,2013-06-26 04:00:00,
2013-06-26 00:01:00,80.9,68.9,29.80,NW,307,2.0,5.0,67,0.00,,SCT250,0.00,0.00,VWS V14.01,2013-06-26 04:01:00,
2013-06-26 00:05:00,81.2,69.2,29.80,West,269,4.0,12.0,67,0.00,,BKN250,0.00,0.00,VWS V14.01,2013-06-26 04:05:00,
2013-06-26 00:06:00,81.2,69.2,29.80,SSW,202,2.0,6.0,67,0.00,,,0.00,0.00,VWS V14.01,2013-06-26 04:06:00,
2013-06-26 00:10:00,81.3,69.3,29.80,WNW,288,9.0,9.0,67,0.00,,BKN250,0.00,0.00,VWS V14.01,2013-06-26 04:10:00,
2013-06-26 00:11:00,81.3,69.3,29.80,West,270,1.0,9.0,67,0.00,,,0.00,0.00,VWS V14.01,2013-06-26 04:11:00,
2013-06-26 00:15:00,81.3,68.9,29.80,West,280,1.0,9.0,66,0.00,,BKN250,0.00,0.00,VWS V14.01,2013-06-26 04:15:00,
2013-06-26 00:16:00,81.4,69.0,29.80,WSW,254,2.0,5.0,66,0.00,,,0.00,0.00,VWS V14.01,2013-06-26 04:16:00,
2013-06-26 00:20:00,81.2,69.2,29.79,West,260,4.0,6.0,67,0.00,,BKN250,0.00,0.00,VWS V14.01,2013-06-26 04:20:00,
2013-06-26 00:21:00,81.2,69.2,29.79,West,260,0.0,4.0,67,0.00,,,0.00,0.00,VWS V14.01,2013-06-26 04:21:00,
2013-06-26 00:25:00,81.1,69.1,29.79,West,261,2.0,5.0,67,0.00,,BKN250,0.00,0.00,VWS V14.01,2013-06-26 04:25:00,
2013-06-26 00:26:00,81.1,69.1,29.79,WSW,239,3.0,7.0,67,0.00,,,0.00,0.00,VWS V14.01,2013-06-26 04:26:00,
2013-06-26 00:30:00,81.0,69.4,29.79,WSW,248,2.0,7.0,68,0.00,,BKN250,0.00,0.00,VWS V14.01,2013-06-26 04:30:00,
2013-06-26 00:31:00,80.9,69.4,29.79,WSW,248,0.0,2.0,68,0.00,,,0.00,0.00,VWS V14.01,2013-06-26 04:31:00,
2013-06-26 00:35:00,80.9,69.4,29.79,West,266,5.0,6.0,68,0.00,,BKN250,0.00,0.00,VWS V14.01,2013-06-26 04:35:00,
2013-06-26 00:36:00,80.9,69.4,29.79,West,266,0.0,5.0,68,0.00,,,0.00,0.00,VWS V14.01,2013-06-26 04:36:00,
2013-06-26 00:40:00,80.7,69.6,29.79,SW,215,2.0,5.0,69,0.00,,BKN250,0.00,0.00,VWS V14.01,2013-06-26 04:40:00,
2013-06-26 00:41:00,80.7,69.6,29.78,SW,215,0.0,2.0,69,0.00,,,0.00,0.00,VWS V14.01,2013-06-26 04:41:00,
2013-06-26 00:45:00,80.5,69.4,29.78,West,263,3.0,4.0,69,0.00,,BKN250,0.00,0.00,VWS V14.01,2013-06-26 04:45:00,
2013-06-26 00:46:00,80.5,69.4,29.78,SW,236,5.0,7.0,69,0.00,,,0.00,0.00,VWS V14.01,2013-06-26 04:46:00,
2013-06-26 00:50:00,80.3,69.6,29.78,SW,223,2.0,7.0,70,0.00,,BKN250,0.00,0.00,VWS V14.01,2013-06-26 04:50:00,
2013-06-26 00:51:00,80.2,69.5,29.78,SW,223,3.0,4.0,70,0.00,,,0.00,0.00,VWS V14.01,2013-06-26 04:51:00,
2013-06-26 00:55:00,80.1,69.4,29.77,SW,235,0.0,6.0,70,0.00,,BKN250,0.00,0.00,VWS V14.01,2013-06-26 04:55:00,
2013-06-26 00:56:00,80.1,69.4,29.77,SW,235,1.0,1.0,70,0.00,,,0.00,0.00,VWS V14.01,2013-06-26 04:56:00,
2013-06-26 01:00:00,80.0,69.8,29.77,SW,235,0.0,2.0,71,0.00,,BKN250,0.00,0.00,VWS V14.01,2013-06-26 05:00:00,
2013-06-26 01:01:00,80.0,69.8,29.77,SW,235,0.0,1.0,71,0.00,,BKN250,0.00,0.00,VWS V14.01,2013-06-26 05:01:00,
2013-06-26 01:05:00,79.8,69.6,29.77,SW,235,2.0,2.0,71,0.00,,BKN250,0.00,0.00,VWS V14.01,2013-06-26 05:05:00,
2013-06-26 01:06:00,79.7,69.5,29.77,SW,235,1.0,2.0,71,0.00,,BKN250,0.00,0.00,VWS V14.01,2013-06-26 05:06:00,
2013-06-26 01:10:00,79.5,70.1,29.77,SW,219,3.0,5.0,73,0.00,,BKN250,0.00,0.00,VWS V14.01,2013-06-26 05:10:00,
2013-06-26 01:11:00,79.4,70.0,29.77,SW,217,4.0,4.0,73,0.00,,BKN250,0.00,0.00,VWS V14.01,2013-06-26 05:11:00,
2013-06-26 01:15:00,79.2,69.8,29.77,SSW,195,3.0,5.0,73,0.00,,BKN250,0.00,0.00,VWS V14.01,2013-06-26 05:15:00,
2013-06-26 01:16:00,79.1,69.7,29.76,SSW,195,2.0,3.0,73,0.00,,BKN250,0.00,0.00,VWS V14.01,2013-06-26 05:16:00,
2013-06-26 01:20:00,79.1,69.7,29.76,SSW,195,2.0,3.0,73,0.00,,BKN250,0.00,0.00,VWS V14.01,2013-06-26 05:20:00,
2013-06-26 01:21:00,79.0,70.0,29.76,SSW,195,2.0,3.0,74,0.00,,BKN250,0.00,0.00,VWS V14.01,2013-06-26 05:21:00,
2013-06-26 01:25:00,78.9,69.9,29.76,SW,217,4.0,4.0,74,0.00,,BKN250,0.00,0.00,VWS V14.01,2013-06-26 05:25:00,
2013-06-26 01:26:00,78.9,69.9,29.76,SW,226,3.0,4.0,74,0.00,,BKN250,0.00,0.00,VWS V14.01,2013-06-26 05:26:00,
2013-06-26 01:30:00,78.9,69.9,29.76,SW,229,3.0,4.0,74,0.00,,BKN250,0.00,0.00,VWS V14.01,2013-06-26 05:30:00,
2013-06-26 01:31:00,78.9,69.9,29.76,SW,229,0.0,3.0,74,0.00,,BKN250,0.00,0.00,VWS V14.01,2013-06-26 05:31:00,
2013-06-26 01:35:00,78.8,70.2,29.76,SW,229,0.0,4.0,75,0.00,,BKN250,0.00,0.00,VWS V14.01,2013-06-26 05:35:00,
2013-06-26 01:36:00,78.8,70.2,29.76,SW,229,0.0,1.0,75,0.00,,BKN250,0.00,0.00,VWS V14.01,2013-06-26 05:36:00,
2013-06-26 01:40:00,78.7,70.1,29.76,SW,229,1.0,3.0,75,0.00,,BKN250,0.00,0.00,VWS V14.01,2013-06-26 05:40:00,
2013-06-26 01:41:00,78.7,70.1,29.76,SW,229,0.0,1.0,75,0.00,,BKN250,0.00,0.00,VWS V14.01,2013-06-26 05:41:00,
2013-06-26 01:45:00,78.6,70.4,29.76,SW,229,0.0,1.0,76,0.00,,BKN250,0.00,0.00,VWS V14.01,2013-06-26 05:45:00,
2013-06-26 01:46:00,78.6,70.4,29.75,SW,229,0.0,0.0,76,0.00,,BKN250,0.00,0.00,VWS V14.01,2013-06-26 05:46:00,
2013-06-26 01:50:00,78.5,70.3,29.75,SW,229,0.0,2.0,76,0.00,,BKN250,0.00,0.00,VWS V14.01,2013-06-26 05:50:00,
2013-06-26 01:51:00,78.4,70.2,29.75,SW,229,0.0,0.0,76,0.00,,BKN250,0.00,0.00,VWS V14.01,2013-06-26 05:51:00,
2013-06-26 01:55:00,78.2,70.0,29.75,SW,229,0.0,2.0,76,0.00,,BKN250,0.00,0.00,VWS V14.01,2013-06-26 05:55:00,
2013-06-26 01:56:00,78.2,70.0,29.75,SW,229,3.0,3.0,76,0.00,,BKN250,0.00,0.00,VWS V14.01,2013-06-26 05:56:00,
2013-06-26 02:00:00,78.0,70.2,29.76,SW,229,0.0,3.0,77,0.00,,BKN250,0.00,0.00,VWS V14.01,2013-06-26 06:00:00,
2013-06-26 02:01:00,77.9,70.1,29.76,SW,229,1.0,1.0,77,0.00,,BKN230,0.00,0.00,VWS V14.01,2013-06-26 06:01:00,
2013-06-26 02:05:00,77.7,70.3,29.76,SW,229,0.0,2.0,78,0.00,,BKN250,0.00,0.00,VWS V14.01,2013-06-26 06:05:00,
2013-06-26 02:06:00,77.7,70.3,29.76,SW,229,0.0,3.0,78,0.00,,BKN230,0.00,0.00,VWS V14.01,2013-06-26 06:06:00,
2013-06-26 02:10:00,77.6,70.2,29.76,SW,233,4.0,4.0,78,0.00,,BKN250,0.00,0.00,VWS V14.01,2013-06-26 06:10:00,
2013-06-26 02:11:00,77.6,70.6,29.76,WSW,242,3.0,4.0,79,0.00,,BKN230,0.00,0.00,VWS V14.01,2013-06-26 06:11:00,
2013-06-26 02:15:00,77.6,70.6,29.75,WSW,246,2.0,5.0,79,0.00,,BKN250,0.00,0.00,VWS V14.01,2013-06-26 06:15:00,
2013-06-26 02:16:00,77.6,70.6,29.75,WSW,246,3.0,3.0,79,0.00,,BKN230,0.00,0.00,VWS V14.01,2013-06-26 06:16:00,
2013-06-26 02:20:00,77.7,70.7,29.75,SW,234,0.0,5.0,79,0.00,,BKN250,0.00,0.00,VWS V14.01,2013-06-26 06:20:00,
2013-06-26 02:21:00,77.7,70.7,29.75,SW,234,1.0,1.0,79,0.00,,BKN230,0.00,0.00,VWS V14.01,2013-06-26 06:21:00,
2013-06-26 02:25:00,77.6,70.6,29.75,SW,223,2.0,4.0,79,0.00,,BKN250,0.00,0.00,VWS V14.01,2013-06-26 06:25:00,
2013-06-26 02:26:00,77.6,70.6,29.75,SW,230,4.0,5.0,79,0.00,,BKN230,0.00,0.00,VWS V14.01,2013-06-26 06:26:00,
2013-06-26 02:30:00,77.7,70.7,29.75,WSW,247,0.0,6.0,79,0.00,,BKN250,0.00,0.00,VWS V14.01,2013-06-26 06:30:00,
2013-06-26 02:31:00,77.7,70.7,29.75,WSW,247,1.0,2.0,79,0.00,,BKN230,0.00,0.00,VWS V14.01,2013-06-26 06:31:00,
2013-06-26 02:35:00,77.6,70.6,29.75,WSW,247,1.0,2.0,79,0.00,,BKN250,0.00,0.00,VWS V14.01,2013-06-26 06:35:00,
2013-06-26 02:36:00,77.7,70.7,29.75,WSW,247,0.0,1.0,79,0.00,,BKN230,0.00,0.00,VWS V14.01,2013-06-26 06:36:00,
2013-06-26 02:40:00,77.5,70.8,29.75,WSW,245,2.0,2.0,80,0.00,,BKN250,0.00,0.00,VWS V14.01,2013-06-26 06:40:00,
2013-06-26 02:41:00,77.5,70.8,29.75,WSW,245,0.0,2.0,80,0.00,,BKN230,0.00,0.00,VWS V14.01,2013-06-26 06:41:00,
2013-06-26 02:45:00,77.4,70.8,29.75,SW,229,2.0,4.0,80,0.00,,BKN250,0.00,0.00,VWS V14.01,2013-06-26 06:45:00,
2013-06-26 02:46:00,77.4,70.8,29.75,SW,229,4.0,4.0,80,0.00,,BKN230,0.00,0.00,VWS V14.01,2013-06-26 06:46:00,
2013-06-26 02:50:00,77.3,71.0,29.75,WSW,248,1.0,5.0,81,0.00,,BKN250,0.00,0.00,VWS V14.01,2013-06-26 06:50:00,
2013-06-26 02:51:00,77.3,71.0,29.75,West,278,1.0,3.0,81,0.00,,BKN230,0.00,0.00,VWS V14.01,2013-06-26 06:51:00,
2013-06-26 02:55:00,77.1,70.8,29.75,WSW,240,3.0,6.0,81,0.00,,BKN250,0.00,0.00,VWS V14.01,2013-06-26 06:55:00,
2013-06-26 02:56:00,77.1,70.8,29.75,WSW,240,0.0,3.0,81,0.00,,BKN230,0.00,0.00,VWS V14.01,2013-06-26 06:56:00,
2013-06-26 03:00:00,77.1,70.8,29.75,SW,216,1.0,5.0,81,0.00,,BKN250,0.00,0.00,VWS V14.01,2013-06-26 07:00:00,
2013-06-26 03:01:00,77.1,70.8,29.75,West,275,2.0,5.0,81,0.00,,SCT250,0.00,0.00,VWS V14.01,2013-06-26 07:01:00,
2013-06-26 03:05:00,77.1,70.8,29.75,West,259,1.0,6.0,81,0.00,,BKN250,0.00,0.00,VWS V14.01,2013-06-26 07:05:00,
2013-06-26 03:06:00,77.1,70.8,29.75,West,259,1.0,2.0,81,0.00,,SCT250,0.00,0.00,VWS V14.01,2013-06-26 07:06:00,
2013-06-26 03:10:00,77.1,70.8,29.75,West,272,2.0,5.0,81,0.00,,BKN250,0.00,0.00,VWS V14.01,2013-06-26 07:10:00,
2013-06-26 03:11:00,77.1,70.8,29.75,West,269,0.0,3.0,81,0.00,,SCT250,0.00,0.00,VWS V14.01,2013-06-26 07:11:00,
2013-06-26 03:15:00,77.1,70.8,29.75,West,277,5.0,7.0,81,0.00,,BKN250,0.00,0.00,VWS V14.01,2013-06-26 07:15:00,
2013-06-26 03:16:00,77.1,70.8,29.75,WSW,252,2.0,5.0,81,0.00,,SCT250,0.00,0.00,VWS V14.01,2013-06-26 07:16:00,
2013-06-26 03:20:00,77.1,70.8,29.75,SW,234,3.0,7.0,81,0.00,,BKN250,0.00,0.00,VWS V14.01,2013-06-26 07:20:00,
2013-06-26 03:21:00,77.1,70.8,29.75,West,259,3.0,4.0,81,0.00,,SCT250,0.00,0.00,VWS V14.01,2013-06-26 07:21:00,
2013-06-26 03:25:00,77.1,70.8,29.75,West,261,4.0,9.0,81,0.00,,BKN250,0.00,0.00,VWS V14.01,2013-06-26 07:25:00,
2013-06-26 03:26:00,77.1,70.8,29.75,South,189,3.0,6.0,81,0.00,,SCT250,0.00,0.00,VWS V14.01,2013-06-26 07:26:00,
2013-06-26 03:30:00,77.2,70.9,29.75,WSW,249,1.0,7.0,81,0.00,,BKN250,0.00,0.00,VWS V14.01,2013-06-26 07:30:00,
2013-06-26 03:31:00,77.1,70.8,29.75,WNW,293,7.0,7.0,81,0.00,,SCT250,0.00,0.00,VWS V14.01,2013-06-26 07:31:00,
2013-06-26 03:35:00,77.2,70.9,29.76,West,259,11.0,11.0,81,0.00,,BKN250,0.00,0.00,VWS V14.01,2013-06-26 07:35:00,
2013-06-26 03:36:00,77.2,70.9,29.76,West,264,3.0,11.0,81,0.00,,SCT250,0.00,0.00,VWS V14.01,2013-06-26 07:36:00,
2013-06-26 03:40:00,77.2,70.6,29.75,West,281,2.0,11.0,80,0.00,,BKN250,0.00,0.00,VWS V14.01,2013-06-26 07:40:00,
2013-06-26 03:41:00,77.2,70.6,29.76,West,279,3.0,3.0,80,0.00,,SCT250,0.00,0.00,VWS V14.01,2013-06-26 07:41:00,
2013-06-26 03:45:00,77.2,70.6,29.75,WSW,252,2.0,7.0,80,0.00,,BKN250,0.00,0.00,VWS V14.01,2013-06-26 07:45:00,
2013-06-26 03:46:00,77.1,70.5,29.75,West,273,5.0,7.0,80,0.00,,SCT250,0.00,0.00,VWS V14.01,2013-06-26 07:46:00,
2013-06-26 03:50:00,77.1,70.1,29.75,SW,228,5.0,7.0,79,0.00,,BKN250,0.00,0.00,VWS V14.01,2013-06-26 07:50:00,
2013-06-26 03:51:00,77.1,70.1,29.75,WSW,237,3.0,5.0,79,0.00,,SCT250,0.00,0.00,VWS V14.01,2013-06-26 07:51:00,
2013-06-26 03:55:00,77.1,70.1,29.76,WSW,257,4.0,6.0,79,0.00,,BKN250,0.00,0.00,VWS V14.01,2013-06-26 07:55:00,
2013-06-26 03:56:00,77.0,70.0,29.76,WSW,257,0.0,4.0,79,0.00,,SCT250,0.00,0.00,VWS V14.01,2013-06-26 07:56:00,
2013-06-26 04:00:00,77.0,70.0,29.76,West,263,5.0,13.0,79,0.00,,BKN250,0.00,0.00,VWS V14.01,2013-06-26 08:00:00,
2013-06-26 04:01:00,77.0,70.0,29.76,SW,234,4.0,9.0,79,0.00,,BKN150,0.00,0.00,VWS V14.01,2013-06-26 08:01:00,
2013-06-26 04:05:00,76.9,69.9,29.76,NW,315,4.0,10.0,79,0.00,,BKN250,0.00,0.00,VWS V14.01,2013-06-26 08:05:00,
2013-06-26 04:06:00,76.9,69.9,29.76,NW,305,1.0,4.0,79,0.00,,BKN150,0.00,0.00,VWS V14.01,2013-06-26 08:06:00,
2013-06-26 04:10:00,76.7,69.7,29.76,WNW,298,0.0,10.0,79,0.00,,BKN250,0.00,0.00,VWS V14.01,2013-06-26 08:10:00,
2013-06-26 04:11:00,76.7,69.7,29.76,WSW,258,12.0,12.0,79,0.00,,BKN150,0.00,0.00,VWS V14.01,2013-06-26 08:11:00,
2013-06-26 04:15:00,76.6,69.6,29.76,WNW,292,3.0,12.0,79,0.00,,BKN250,0.00,0.00,VWS V14.01,2013-06-26 08:15:00,
2013-06-26 04:16:00,76.6,69.6,29.76,NNW,331,2.0,7.0,79,0.00,,BKN150,0.00,0.00,VWS V14.01,2013-06-26 08:16:00,
2013-06-26 04:20:00,76.4,69.4,29.76,WNW,297,1.0,9.0,79,0.00,,BKN250,0.00,0.00,VWS V14.01,2013-06-26 08:20:00,
2013-06-26 04:21:00,76.5,69.5,29.76,West,271,3.0,3.0,79,0.00,,BKN150,0.00,0.00,VWS V14.01,2013-06-26 08:21:00,
2013-06-26 04:25:00,76.4,69.4,29.76,WSW,258,4.0,6.0,79,0.00,,BKN250,0.00,0.00,VWS V14.01,2013-06-26 08:25:00,
2013-06-26 04:26:00,76.3,69.3,29.76,WNW,284,2.0,6.0,79,0.00,,BKN150,0.00,0.00,VWS V14.01,2013-06-26 08:26:00,
2013-06-26 04:30:00,76.2,69.2,29.76,WNW,285,2.0,9.0,79,0.00,,BKN250,0.00,0.00,VWS V14.01,2013-06-26 08:30:00,
2013-06-26 04:31:00,76.2,69.2,29.76,West,263,3.0,3.0,79,0.00,,BKN150,0.00,0.00,VWS V14.01,2013-06-26 08:31:00,
2013-06-26 04:35:00,76.2,69.2,29.76,West,270,0.0,6.0,79,0.00,,BKN250,0.00,0.00,VWS V14.01,2013-06-26 08:35:00,
2013-06-26 04:36:00,76.2,69.2,29.76,West,270,0.0,0.0,79,0.00,,BKN150,0.00,0.00,VWS V14.01,2013-06-26 08:36:00,
2013-06-26 04:40:00,76.1,69.1,29.76,West,281,2.0,7.0,79,0.00,,BKN250,0.00,0.00,VWS V14.01,2013-06-26 08:40:00,
2013-06-26 04:41:00,76.1,69.1,29.76,WNW,293,1.0,3.0,79,0.00,,BKN150,0.00,0.00,VWS V14.01,2013-06-26 08:41:00,
2013-06-26 04:45:00,76.0,69.0,29.76,West,262,4.0,9.0,79,0.00,,BKN250,0.00,0.00,VWS V14.01,2013-06-26 08:45:00,
2013-06-26 04:46:00,76.0,69.0,29.76,West,262,0.0,4.0,79,0.00,,BKN150,0.00,0.00,VWS V14.01,2013-06-26 08:46:00,
2013-06-26 04:50:00,76.0,69.0,29.76,WSW,254,2.0,7.0,79,0.00,,BKN250,0.00,0.00,VWS V14.01,2013-06-26 08:50:00,
2013-06-26 04:51:00,76.0,69.0,29.76,WSW,254,2.0,2.0,79,0.00,,BKN150,0.00,0.00,VWS V14.01,2013-06-26 08:51:00,
2013-06-26 04:55:00,76.0,69.0,29.76,West,261,0.0,6.0,79,0.00,,BKN250,0.00,0.00,VWS V14.01,2013-06-26 08:55:00,
2013-06-26 04:56:00,76.0,69.0,29.76,West,270,2.0,3.0,79,0.00,,BKN150,0.00,0.00,VWS V14.01,2013-06-26 08:56:00,
2013-06-26 05:00:00,76.0,69.0,29.77,West,271,1.0,4.0,79,0.00,,BKN250,0.00,0.00,VWS V14.01,2013-06-26 09:00:00,
2013-06-26 05:01:00,76.0,69.0,29.77,WSW,242,5.0,5.0,79,0.00,,SCT250,0.00,0.00,VWS V14.01,2013-06-26 09:01:00,
2013-06-26 05:05:00,76.0,69.0,29.77,WSW,246,9.0,9.0,79,0.00,,BKN250,0.00,0.00,VWS V14.01,2013-06-26 09:05:00,
2013-06-26 05:06:00,76.0,69.0,29.77,West,272,4.0,9.0,79,0.00,,SCT250,0.00,0.00,VWS V14.01,2013-06-26 09:06:00,
2013-06-26 05:10:00,76.0,69.0,29.77,NNW,329,1.0,9.0,79,0.00,,BKN250,0.00,0.00,VWS V14.01,2013-06-26 09:10:00,
2013-06-26 05:11:00,76.0,69.0,29.77,NNW,339,0.0,1.0,79,0.00,,SCT250,0.00,0.00,VWS V14.01,2013-06-26 09:11:00,
2013-06-26 05:15:00,75.9,68.9,29.77,WNW,301,1.0,3.0,79,0.00,,BKN250,0.00,0.00,VWS V14.01,2013-06-26 09:15:00,
2013-06-26 05:16:00,75.9,68.9,29.77,WNW,301,0.0,2.0,79,0.00,,SCT250,0.00,0.00,VWS V14.01,2013-06-26 09:16:00,
2013-06-26 05:20:00,75.8,68.8,29.77,West,261,1.0,5.0,79,0.00,,BKN250,0.00,0.00,VWS V14.01,2013-06-26 09:20:00,
2013-06-26 05:21:00,75.8,68.8,29.77,WNW,296,5.0,6.0,79,0.00,,SCT250,0.00,0.00,VWS V14.01,2013-06-26 09:21:00,
2013-06-26 05:25:00,75.8,68.8,29.77,WNW,290,1.0,6.0,79,0.00,,BKN250,0.00,0.00,VWS V14.01,2013-06-26 09:25:00,
2013-06-26 05:26:00,75.8,68.8,29.77,SW,221,3.0,4.0,79,0.00,,SCT250,0.00,0.00,VWS V14.01,2013-06-26 09:26:00,
2013-06-26 05:30:00,75.7,69.1,29.77,SW,229,3.0,5.0,80,0.00,,BKN250,0.00,0.00,VWS V14.01,2013-06-26 09:30:00,
2013-06-26 05:31:00,75.6,69.0,29.77,WSW,244,2.0,3.0,80,0.00,,SCT250,0.00,0.00,VWS V14.01,2013-06-26 09:31:00,
2013-06-26 05:35:00,75.5,68.9,29.77,WSW,252,5.0,5.0,80,0.00,,BKN250,0.00,5.00,VWS V14.01,2013-06-26 09:35:00,
2013-06-26 05:36:00,75.5,68.9,29.77,WSW,257,2.0,5.0,80,0.00,,SCT250,0.00,5.00,VWS V14.01,2013-06-26 09:36:00,
2013-06-26 05:40:00,75.4,68.8,29.78,WSW,257,2.0,5.0,80,0.00,,BKN250,0.00,9.00,VWS V14.01,2013-06-26 09:40:00,
2013-06-26 05:41:00,75.4,68.8,29.78,WSW,257,0.0,2.0,80,0.00,,SCT250,0.00,9.00,VWS V14.01,2013-06-26 09:41:00,
2013-06-26 05:45:00,75.3,68.7,29.78,WSW,255,0.0,2.0,80,0.00,,BKN250,0.00,14.00,VWS V14.01,2013-06-26 09:45:00,
2013-06-26 05:46:00,75.3,68.7,29.78,WSW,255,0.0,1.0,80,0.00,,SCT250,0.00,16.00,VWS V14.01,2013-06-26 09:46:00,
2013-06-26 05:50:00,75.3,68.7,29.78,WSW,255,6.0,8.0,80,0.00,,BKN250,0.00,19.00,VWS V14.01,2013-06-26 09:50:00,
2013-06-26 05:51:00,75.2,68.6,29.78,WNW,285,5.0,8.0,80,0.00,,SCT250,0.00,21.00,VWS V14.01,2013-06-26 09:51:00,
2013-06-26 05:55:00,75.2,68.6,29.78,WNW,290,2.0,8.0,80,0.00,,BKN250,0.00,28.00,VWS V14.01,2013-06-26 09:55:00,
2013-06-26 05:56:00,75.2,68.6,29.78,West,280,2.0,4.0,80,0.00,,SCT250,0.00,28.00,VWS V14.01,2013-06-26 09:56:00,
2013-06-26 06:00:00,75.3,68.7,29.78,West,276,2.0,6.0,80,0.00,,BKN250,0.00,35.00,VWS V14.01,2013-06-26 10:00:00,
2013-06-26 06:01:00,75.3,68.7,29.79,WNW,296,1.0,5.0,80,0.00,,SCT250,0.00,37.00,VWS V14.01,2013-06-26 10:01:00,
2013-06-26 06:05:00,75.3,68.7,29.79,WSW,237,2.0,9.0,80,0.00,,BKN250,0.00,46.00,VWS V14.01,2013-06-26 10:05:00,
2013-06-26 06:06:00,75.3,68.7,29.79,WSW,254,1.0,3.0,80,0.00,,BKN150,0.00,46.00,VWS V14.01,2013-06-26 10:06:00,
2013-06-26 06:10:00,75.5,68.9,29.79,West,265,2.0,5.0,80,0.00,,BKN250,0.00,54.00,VWS V14.01,2013-06-26 10:10:00,
2013-06-26 06:11:00,75.5,68.9,29.79,West,265,0.0,2.0,80,0.00,,BKN150,0.00,54.00,VWS V14.01,2013-06-26 10:11:00,
2013-06-26 06:15:00,75.5,68.9,29.79,WNW,286,4.0,4.0,80,0.00,,BKN250,0.00,62.00,VWS V14.01,2013-06-26 10:15:00,
2013-06-26 06:16:00,75.5,68.9,29.79,WNW,284,1.0,4.0,80,0.00,,BKN150,0.00,63.00,VWS V14.01,2013-06-26 10:16:00,
2013-06-26 06:20:00,75.6,68.6,29.79,WNW,284,0.0,6.0,79,0.00,,BKN150,0.00,70.00,VWS V14.01,2013-06-26 10:20:00,
2013-06-26 06:25:00,75.7,68.7,29.79,West,261,5.0,10.0,79,0.00,,BKN250,0.00,62.00,VWS V14.01,2013-06-26 10:25:00,
2013-06-26 06:26:00,75.7,68.7,29.79,WNW,291,3.0,6.0,79,0.00,,BKN150,0.00,67.00,VWS V14.01,2013-06-26 10:26:00,
2013-06-26 06:30:00,75.8,68.8,29.80,WSW,248,2.0,6.0,79,0.00,,BKN250,0.00,63.00,VWS V14.01,2013-06-26 10:30:00,
2013-06-26 06:31:00,75.8,68.8,29.80,WSW,252,1.0,2.0,79,0.00,,BKN150,0.00,69.00,VWS V14.01,2013-06-26 10:31:00,
2013-06-26 06:35:00,75.8,68.8,29.80,West,263,3.0,8.0,79,0.00,,BKN250,0.00,88.00,VWS V14.01,2013-06-26 10:35:00,
2013-06-26 06:36:00,75.8,68.8,29.80,WSW,240,4.0,5.0,79,0.00,,BKN150,0.00,88.00,VWS V14.01,2013-06-26 10:36:00,
2013-06-26 06:40:00,75.8,68.5,29.80,SW,230,4.0,7.0,78,0.00,,BKN250,0.00,93.00,VWS V14.01,2013-06-26 10:40:00,
2013-06-26 06:41:00,75.8,68.5,29.80,West,262,6.0,6.0,78,0.00,,BKN150,0.00,93.00,VWS V14.01,2013-06-26 10:41:00,
2013-06-26 06:45:00,75.9,68.6,29.80,West,281,8.0,8.0,78,0.00,,BKN250,0.00,107.00,VWS V14.01,2013-06-26 10:45:00,
2013-06-26 06:46:00,75.9,68.6,29.80,SW,220,5.0,8.0,78,0.00,,BKN150,0.00,107.00,VWS V14.01,2013-06-26 10:46:00,
2013-06-26 06:50:00,75.9,68.6,29.80,WSW,254,2.0,2.0,78,0.00,,BKN150,0.00,130.00,VWS V14.01,2013-06-26 10:50:00,
2013-06-26 06:55:00,76.0,68.7,29.80,West,265,2.0,4.0,78,0.00,,BKN150,0.00,155.00,VWS V14.01,2013-06-26 10:55:00,
2013-06-26 07:00:00,76.1,68.4,29.80,NW,318,2.0,5.0,77,0.00,,BKN250,0.00,183.00,VWS V14.01,2013-06-26 11:00:00,
2013-06-26 07:05:00,76.3,68.6,29.80,WSW,246,2.0,3.0,77,0.00,,BKN250,0.00,188.00,VWS V14.01,2013-06-26 11:05:00,
2013-06-26 07:10:00,76.5,68.8,29.80,West,281,2.0,3.0,77,0.00,,BKN250,0.00,181.00,VWS V14.01,2013-06-26 11:10:00,
2013-06-26 07:15:00,76.6,68.9,29.80,WSW,254,5.0,8.0,77,0.00,,BKN250,0.00,181.00,VWS V14.01,2013-06-26 11:15:00,
2013-06-26 07:20:00,76.6,68.5,29.80,West,269,4.0,9.0,76,0.00,,BKN250,0.00,221.00,VWS V14.01,2013-06-26 11:20:00,
2013-06-26 07:25:00,76.6,68.5,29.80,SW,232,3.0,3.0,76,0.00,,BKN250,0.00,236.00,VWS V14.01,2013-06-26 11:25:00,
2013-06-26 07:30:00,76.7,68.6,29.80,SW,218,7.0,7.0,76,0.00,,BKN250,0.00,246.00,VWS V14.01,2013-06-26 11:30:00,
2013-06-26 07:35:00,76.8,68.3,29.80,West,264,6.0,8.0,75,0.00,,BKN250,0.00,260.00,VWS V14.01,2013-06-26 11:35:00,
2013-06-26 07:40:00,76.9,68.4,29.80,WSW,241,3.0,4.0,75,0.00,,BKN250,0.00,272.00,VWS V14.01,2013-06-26 11:40:00,
2013-06-26 07:45:00,77.1,68.2,29.81,WSW,248,5.0,7.0,74,0.00,,BKN250,0.00,290.00,VWS V14.01,2013-06-26 11:45:00,
2013-06-26 07:50:00,77.3,68.8,29.81,SSW,213,5.0,5.0,75,0.00,,BKN250,0.00,297.00,VWS V14.01,2013-06-26 11:50:00,
2013-06-26 07:55:00,77.5,68.6,29.81,WNW,298,3.0,3.0,74,0.00,,BKN250,0.00,294.00,VWS V14.01,2013-06-26 11:55:00,
2013-06-26 08:00:00,77.5,68.6,29.82,WSW,252,0.0,0.0,74,0.00,,BKN250,0.00,318.00,VWS V14.01,2013-06-26 12:00:00,
2013-06-26 08:05:00,77.6,68.7,29.82,SW,215,1.0,2.0,74,0.00,,BKN250,0.00,338.00,VWS V14.01,2013-06-26 12:05:00,
2013-06-26 08:10:00,77.8,68.5,29.82,West,275,3.0,6.0,73,0.00,,BKN250,0.00,352.00,VWS V14.01,2013-06-26 12:10:00,
2013-06-26 08:15:00,77.7,68.8,29.82,NW,320,4.0,4.0,74,0.00,,BKN250,0.00,343.00,VWS V14.01,2013-06-26 12:15:00,
2013-06-26 08:20:00,77.8,68.9,29.82,WSW,249,5.0,7.0,74,0.00,,BKN250,0.00,364.00,VWS V14.01,2013-06-26 12:20:00,
2013-06-26 08:25:00,77.8,68.9,29.82,WSW,237,8.0,8.0,74,0.00,,BKN250,0.00,376.00,VWS V14.01,2013-06-26 12:25:00,
2013-06-26 08:30:00,77.8,68.5,29.82,North,360,3.0,5.0,73,0.00,,BKN250,0.00,401.00,VWS V14.01,2013-06-26 12:30:00,
2013-06-26 08:35:00,77.8,68.9,29.82,NNW,331,8.0,8.0,74,0.00,,BKN250,0.00,431.00,VWS V14.01,2013-06-26 12:35:00,
2013-06-26 08:40:00,78.0,68.7,29.82,West,281,5.0,6.0,73,0.00,,BKN250,0.00,446.00,VWS V14.01,2013-06-26 12:40:00,
2013-06-26 08:45:00,78.2,68.4,29.82,WSW,246,3.0,3.0,72,0.00,,BKN250,0.00,461.00,VWS V14.01,2013-06-26 12:45:00,
2013-06-26 08:50:00,78.4,68.6,29.82,NNW,331,3.0,6.0,72,0.00,,BKN250,0.00,466.00,VWS V14.01,2013-06-26 12:50:00,
2013-06-26 08:55:00,78.8,69.0,29.82,WSW,249,6.0,6.0,72,0.00,,BKN250,0.00,490.00,VWS V14.01,2013-06-26 12:55:00,
2013-06-26 09:00:00,79.0,69.2,29.81,WNW,295,2.0,2.0,72,0.00,,BKN250,0.00,506.00,VWS V14.01,2013-06-26 13:00:00,
2013-06-26 09:05:00,79.4,69.2,29.81,North,9,2.0,3.0,71,0.00,,BKN250,0.00,406.00,VWS V14.01,2013-06-26 13:05:00,
2013-06-26 09:10:00,79.7,69.1,29.81,NW,320,1.0,2.0,70,0.00,,BKN250,0.00,462.00,VWS V14.01,2013-06-26 13:10:00,
2013-06-26 09:15:00,79.8,69.2,29.81,WNW,286,1.0,3.0,70,0.00,,BKN250,0.00,149.00,VWS V14.01,2013-06-26 13:15:00,
2013-06-26 09:20:00,79.6,69.4,29.81,WNW,303,0.0,2.0,71,0.00,,BKN250,0.00,355.00,VWS V14.01,2013-06-26 13:20:00,
2013-06-26 09:25:00,79.8,69.2,29.81,WNW,299,2.0,3.0,70,0.00,,BKN250,0.00,610.00,VWS V14.01,2013-06-26 13:25:00,
2013-06-26 09:30:00,80.1,69.4,29.81,West,263,9.0,9.0,70,0.00,,BKN250,0.00,589.00,VWS V14.01,2013-06-26 13:30:00,
2013-06-26 09:35:00,80.4,69.3,29.81,WNW,285,4.0,4.0,69,0.00,,BKN250,0.00,812.00,VWS V14.01,2013-06-26 13:35:00,
2013-06-26 09:40:00,80.5,69.4,29.81,WNW,299,2.0,2.0,69,0.00,,BKN250,0.00,373.00,VWS V14.01,2013-06-26 13:40:00,
2013-06-26 09:45:00,80.8,69.7,29.81,WSW,244,6.0,8.0,69,0.00,,BKN250,0.00,234.00,VWS V14.01,2013-06-26 13:45:00,
2013-06-26 09:50:00,80.4,69.3,29.81,WNW,283,7.0,7.0,69,0.00,,BKN250,0.00,429.00,VWS V14.01,2013-06-26 13:50:00,
2013-06-26 09:55:00,80.6,69.9,29.81,WNW,289,1.0,2.0,70,0.00,,BKN250,0.00,671.00,VWS V14.01,2013-06-26 13:55:00,
2013-06-26 10:00:00,81.2,69.6,29.81,NW,317,2.0,3.0,68,0.00,,BKN250,0.00,682.00,VWS V14.01,2013-06-26 14:00:00,
2013-06-26 10:05:00,81.7,69.2,29.81,SW,229,1.0,1.0,66,0.00,,BKN250,0.00,696.00,VWS V14.01,2013-06-26 14:05:00,
2013-06-26 10:10:00,82.0,70.4,29.82,SW,235,2.0,3.0,68,0.00,,BKN250,0.00,691.00,VWS V14.01,2013-06-26 14:10:00,
2013-06-26 10:15:00,82.6,70.5,29.81,SW,232,1.0,3.0,67,0.00,,BKN250,0.00,696.00,VWS V14.01,2013-06-26 14:15:00,
2013-06-26 10:20:00,83.0,70.5,29.81,West,263,3.0,4.0,66,0.00,,BKN250,0.00,717.00,VWS V14.01,2013-06-26 14:20:00,
2013-06-26 10:25:00,83.1,70.1,29.81,WSW,237,6.0,6.0,65,0.00,,BKN250,0.00,751.00,VWS V14.01,2013-06-26 14:25:00,
2013-06-26 10:30:00,82.8,69.4,29.81,SW,234,4.0,5.0,64,0.00,,BKN250,0.00,766.00,VWS V14.01,2013-06-26 14:30:00,
2013-06-26 10:35:00,83.0,70.0,29.81,NNE,17,2.0,2.0,65,0.00,,BKN250,0.00,742.00,VWS V14.01,2013-06-26 14:35:00,
2013-06-26 10:40:00,83.9,70.9,29.80,NW,313,5.0,5.0,65,0.00,,BKN250,0.00,779.00,VWS V14.01,2013-06-26 14:40:00,
2013-06-26 10:45:00,84.3,69.9,29.80,NW,304,3.0,3.0,62,0.00,,BKN250,0.00,786.00,VWS V14.01,2013-06-26 14:45:00,
2013-06-26 10:50:00,84.6,70.6,29.81,WNW,286,2.0,4.0,63,0.00,,BKN250,0.00,810.00,VWS V14.01,2013-06-26 14:50:00,
2013-06-26 10:55:00,84.8,70.3,29.81,SW,234,4.0,7.0,62,0.00,,BKN250,0.00,831.00,VWS V14.01,2013-06-26 14:55:00,
2013-06-26 11:00:00,84.6,70.6,29.81,West,268,2.0,2.0,63,0.00,,BKN250,0.00,443.00,VWS V14.01,2013-06-26 15:00:00,
2013-06-26 11:05:00,84.8,70.3,29.81,NNW,335,1.0,1.0,62,0.00,,SCT250,0.00,413.00,VWS V14.01,2013-06-26 15:05:00,
2013-06-26 11:10:00,84.6,70.2,29.81,WNW,295,2.0,4.0,62,0.00,,SCT250,0.00,383.00,VWS V14.01,2013-06-26 15:10:00,
2013-06-26 11:15:00,84.6,70.2,29.81,WSW,250,4.0,4.0,62,0.00,,SCT250,0.00,346.00,VWS V14.01,2013-06-26 15:15:00,
2013-06-26 11:20:00,84.1,69.2,29.81,SSW,202,1.0,1.0,61,0.00,,SCT250,0.00,374.00,VWS V14.01,2013-06-26 15:20:00,
2013-06-26 11:25:00,83.9,70.0,29.81,WSW,248,2.0,2.0,63,0.00,,SCT250,0.00,350.00,VWS V14.01,2013-06-26 15:25:00,
2013-06-26 11:30:00,83.8,69.9,29.81,WNW,296,0.0,0.0,63,0.00,,SCT250,0.00,302.00,VWS V14.01,2013-06-26 15:30:00,
2013-06-26 11:35:00,83.7,69.8,29.81,West,275,3.0,3.0,63,0.00,,SCT250,0.00,352.00,VWS V14.01,2013-06-26 15:35:00,
2013-06-26 11:40:00,83.4,69.5,29.81,West,277,2.0,2.0,63,0.00,,SCT250,0.00,478.00,VWS V14.01,2013-06-26 15:40:00,
2013-06-26 11:45:00,83.4,69.5,29.81,West,273,2.0,2.0,63,0.00,,SCT250,0.00,471.00,VWS V14.01,2013-06-26 15:45:00,
2013-06-26 11:50:00,83.5,70.1,29.81,NNW,347,2.0,2.0,64,0.00,,SCT250,0.00,759.00,VWS V14.01,2013-06-26 15:50:00,
2013-06-26 11:55:00,84.0,70.1,29.81,WSW,251,2.0,2.0,63,0.00,,SCT250,0.00,425.00,VWS V14.01,2013-06-26 15:55:00,
2013-06-26 12:00:00,84.4,70.0,29.81,West,262,1.0,1.0,62,0.00,,SCT250,0.00,418.00,VWS V14.01,2013-06-26 16:00:00,
2013-06-26 12:05:00,84.3,69.9,29.81,West,280,4.0,5.0,62,0.00,,SCT250,0.00,448.00,VWS V14.01,2013-06-26 16:05:00,
2013-06-26 12:10:00,84.3,68.9,29.81,WNW,288,1.0,1.0,60,0.00,,SCT250,0.00,466.00,VWS V14.01,2013-06-26 16:10:00,
2013-06-26 12:15:00,84.6,69.7,29.81,WNW,283,0.0,0.0,61,0.00,,SCT250,0.00,466.00,VWS V14.01,2013-06-26 16:15:00,
2013-06-26 12:20:00,84.9,70.4,29.81,WNW,285,0.0,1.0,62,0.00,,SCT250,0.00,403.00,VWS V14.01,2013-06-26 16:20:00,
2013-06-26 12:25:00,85.2,68.8,29.81,WNW,282,2.0,2.0,58,0.00,,SCT250,0.00,316.00,VWS V14.01,2013-06-26 16:25:00,
2013-06-26 12:30:00,85.0,69.6,29.81,WNW,283,3.0,5.0,60,0.00,,SCT250,0.00,281.00,VWS V14.01,2013-06-26 16:30:00,
2013-06-26 12:35:00,84.8,69.4,29.81,SW,218,2.0,5.0,60,0.00,,SCT250,0.00,290.00,VWS V14.01,2013-06-26 16:35:00,
2013-06-26 12:40:00,84.7,69.8,29.81,West,270,0.0,4.0,61,0.00,,SCT250,0.00,336.00,VWS V14.01,2013-06-26 16:40:00,
2013-06-26 12:45:00,84.5,70.1,29.81,West,270,3.0,4.0,62,0.00,,SCT250,0.00,299.00,VWS V14.01,2013-06-26 16:45:00,
2013-06-26 12:50:00,84.3,69.9,29.81,West,270,0.0,4.0,62,0.00,,SCT250,0.00,267.00,VWS V14.01,2013-06-26 16:50:00,
2013-06-26 12:55:00,84.4,70.4,29.81,West,270,0.0,2.0,63,0.00,,SCT250,0.00,250.00,VWS V14.01,2013-06-26 16:55:00,
2013-06-26 13:00:00,84.8,71.7,29.82,West,270,1.0,1.0,65,0.00,,SCT250,0.00,272.00,VWS V14.01,2013-06-26 17:00:00,
2013-06-26 13:05:00,84.8,71.3,29.82,WNW,282,4.0,6.0,64,0.00,,BKN160,0.00,290.00,VWS V14.01,2013-06-26 17:05:00,
2013-06-26 13:10:00,84.4,70.0,29.82,West,266,1.0,5.0,62,0.00,,BKN160,0.00,253.00,VWS V14.01,2013-06-26 17:10:00,
2013-06-26 13:15:00,84.2,70.2,29.82,West,279,1.0,5.0,63,0.00,,BKN160,0.00,250.00,VWS V14.01,2013-06-26 17:15:00,
2013-06-26 13:20:00,84.0,70.1,29.82,West,277,1.0,4.0,63,0.00,,BKN160,0.00,253.00,VWS V14.01,2013-06-26 17:20:00,
2013-06-26 13:25:00,83.8,69.4,29.82,SW,229,4.0,8.0,62,0.00,,BKN160,0.00,220.00,VWS V14.01,2013-06-26 17:25:00,
2013-06-26 13:30:00,83.4,69.5,29.82,WNW,298,1.0,5.0,63,0.00,,BKN160,0.00,223.00,VWS V14.01,2013-06-26 17:30:00,
2013-06-26 13:35:00,83.2,69.3,29.81,WSW,257,3.0,7.0,63,0.00,,BKN160,0.00,294.00,VWS V14.01,2013-06-26 17:35:00,
2013-06-26 13:40:00,82.9,69.0,29.81,West,265,1.0,5.0,63,0.00,,BKN160,0.00,364.00,VWS V14.01,2013-06-26 17:40:00,
2013-06-26 13:45:00,82.7,69.3,29.81,WNW,285,1.0,4.0,64,0.00,,BKN160,0.00,371.00,VWS V14.01,2013-06-26 17:45:00,
2013-06-26 13:50:00,82.7,69.8,29.82,WNW,293,2.0,5.0,65,0.00,,BKN160,0.00,287.00,VWS V14.01,2013-06-26 17:50:00,
2013-06-26 13:55:00,82.8,69.8,29.82,WNW,293,0.0,3.0,65,0.00,,BKN160,0.00,258.00,VWS V14.01,2013-06-26 17:55:00,
2013-06-26 14:00:00,82.7,69.8,29.81,WSW,253,2.0,5.0,65,0.00,,BKN160,0.00,306.00,VWS V14.01,2013-06-26 18:00:00,
2013-06-26 14:05:00,82.5,69.1,29.81,WNW,288,1.0,7.0,64,0.00,,OVC190,0.00,295.00,VWS V14.01,2013-06-26 18:05:00,
2013-06-26 14:10:00,82.4,69.5,29.81,WNW,284,0.0,4.0,65,0.00,,OVC190,0.00,274.00,VWS V14.01,2013-06-26 18:10:00,
2013-06-26 14:15:00,82.5,69.6,29.81,NW,312,0.0,4.0,65,0.00,,OVC190,0.00,271.00,VWS V14.01,2013-06-26 18:15:00,
2013-06-26 14:20:00,82.6,69.2,29.81,West,267,3.0,6.0,64,0.00,,OVC190,0.00,292.00,VWS V14.01,2013-06-26 18:20:00,
2013-06-26 14:25:00,82.5,69.1,29.81,West,265,2.0,5.0,64,0.00,,OVC190,0.00,320.00,VWS V14.01,2013-06-26 18:25:00,
2013-06-26 14:30:00,82.5,69.6,29.81,West,265,4.0,4.0,65,0.00,,OVC190,0.00,357.00,VWS V14.01,2013-06-26 18:30:00,
2013-06-26 14:35:00,82.6,69.7,29.81,West,269,1.0,5.0,65,0.00,,OVC190,0.00,411.00,VWS V14.01,2013-06-26 18:35:00,
2013-06-26 14:40:00,82.9,70.4,29.81,West,269,0.0,3.0,66,0.00,,OVC190,0.00,438.00,VWS V14.01,2013-06-26 18:40:00,
2013-06-26 14:45:00,83.2,69.8,29.81,West,262,8.0,8.0,64,0.00,,OVC190,0.00,415.00,VWS V14.01,2013-06-26 18:45:00,
2013-06-26 14:50:00,83.1,69.7,29.81,WNW,286,0.0,7.0,64,0.00,,OVC190,0.00,413.00,VWS V14.01,2013-06-26 18:50:00,
2013-06-26 14:55:00,83.4,69.9,29.81,WNW,288,2.0,4.0,64,0.00,,OVC190,0.00,399.00,VWS V14.01,2013-06-26 18:55:00,
2013-06-26 15:00:00,83.7,69.8,29.81,NW,321,5.0,5.0,63,0.00,,OVC190,0.00,329.00,VWS V14.01,2013-06-26 19:00:00,
2013-06-26 15:05:00,83.8,69.9,29.81,West,260,0.0,5.0,63,0.00,,OVC200,0.00,313.00,VWS V14.01,2013-06-26 19:05:00,
2013-06-26 15:10:00,84.0,70.1,29.81,WSW,241,5.0,7.0,63,0.00,,OVC200,0.00,345.00,VWS V14.01,2013-06-26 19:10:00,
2013-06-26 15:15:00,84.0,70.5,29.81,West,261,6.0,6.0,64,0.00,,OVC200,0.00,413.00,VWS V14.01,2013-06-26 19:15:00,
2013-06-26 15:20:00,83.9,69.5,29.80,West,274,2.0,5.0,62,0.00,,OVC200,0.00,401.00,VWS V14.01,2013-06-26 19:20:00,
2013-06-26 15:25:00,83.9,70.0,29.80,WNW,294,0.0,5.0,63,0.00,,OVC200,0.00,406.00,VWS V14.01,2013-06-26 19:25:00,
2013-06-26 15:30:00,83.9,69.5,29.80,West,264,0.0,7.0,62,0.00,,OVC200,0.00,378.00,VWS V14.01,2013-06-26 19:30:00,
2013-06-26 15:35:00,84.0,70.5,29.80,SW,227,2.0,8.0,64,0.00,,OVC200,0.00,339.00,VWS V14.01,2013-06-26 19:35:00,
2013-06-26 15:40:00,84.1,69.7,29.80,WSW,248,3.0,7.0,62,0.00,,OVC200,0.00,403.00,VWS V14.01,2013-06-26 19:40:00,
2013-06-26 15:45:00,84.0,69.1,29.80,SW,223,5.0,8.0,61,0.00,,OVC200,0.00,417.00,VWS V14.01,2013-06-26 19:45:00,
2013-06-26 15:50:00,83.9,69.5,29.79,WSW,246,5.0,7.0,62,0.00,,OVC200,0.00,429.00,VWS V14.01,2013-06-26 19:50:00,
2013-06-26 15:55:00,83.9,69.5,29.79,West,263,2.0,8.0,62,0.00,,OVC200,0.00,432.00,VWS V14.01,2013-06-26 19:55:00,
2013-06-26 16:00:00,84.1,69.7,29.79,SW,231,0.0,4.0,62,0.00,,OVC200,0.00,359.00,VWS V14.01,2013-06-26 20:00:00,
2013-06-26 16:05:00,84.5,69.6,29.79,West,268,5.0,6.0,61,0.00,,OVC200,0.00,374.00,VWS V14.01,2013-06-26 20:05:00,
2013-06-26 16:10:00,84.7,69.8,29.79,WNW,299,3.0,8.0,61,0.00,,OVC200,0.00,789.00,VWS V14.01,2013-06-26 20:10:00,
2013-06-26 16:15:00,85.2,69.8,29.79,WSW,238,4.0,5.0,60,0.00,,OVC200,0.00,693.00,VWS V14.01,2013-06-26 20:15:00,
2013-06-26 16:20:00,85.6,70.1,29.79,WSW,240,6.0,9.0,60,0.00,,OVC200,0.00,584.00,VWS V14.01,2013-06-26 20:20:00,
2013-06-26 16:25:00,85.6,69.6,29.78,West,259,5.0,10.0,59,0.00,,OVC200,0.00,432.00,VWS V14.01,2013-06-26 20:25:00,
2013-06-26 16:30:00,85.3,69.8,29.78,SW,232,4.0,11.0,60,0.00,,OVC200,0.00,508.00,VWS V14.01,2013-06-26 20:30:00,
2013-06-26 16:35:00,85.3,69.8,29.78,WSW,243,3.0,6.0,60,0.00,,OVC200,0.00,531.00,VWS V14.01,2013-06-26 20:35:00,
2013-06-26 16:40:00,85.1,68.7,29.78,West,261,7.0,8.0,58,0.00,,OVC200,0.00,260.00,VWS V14.01,2013-06-26 20:40:00,
2013-06-26 16:45:00,85.0,69.1,29.78,WSW,251,6.0,7.0,59,0.00,,OVC200,0.00,526.00,VWS V14.01,2013-06-26 20:45:00,
2013-06-26 16:50:00,84.8,68.9,29.78,West,273,0.0,7.0,59,0.00,,OVC200,0.00,278.00,VWS V14.01,2013-06-26 20:50:00,
2013-06-26 16:55:00,85.0,69.6,29.78,WNW,284,5.0,5.0,60,0.00,,OVC200,0.00,232.00,VWS V14.01,2013-06-26 20:55:00,
2013-06-26 17:00:00,85.0,69.1,29.78,West,259,0.0,5.0,59,0.00,,OVC200,0.00,216.00,VWS V14.01,2013-06-26 21:00:00,
2013-06-26 17:05:00,85.2,70.7,29.78,West,259,0.0,1.0,62,0.00,,OVC200,0.00,181.00,VWS V14.01,2013-06-26 21:05:00,
2013-06-26 17:10:00,85.0,69.1,29.78,West,265,0.0,3.0,59,0.00,,OVC200,0.00,176.00,VWS V14.01,2013-06-26 21:10:00,
2013-06-26 17:15:00,84.9,69.5,29.78,West,265,0.0,2.0,60,0.00,,OVC200,0.00,188.00,VWS V14.01,2013-06-26 21:15:00,
2013-06-26 17:20:00,84.9,70.0,29.78,West,265,0.0,2.0,61,0.00,,OVC200,0.00,204.00,VWS V14.01,2013-06-26 21:20:00,
2013-06-26 17:25:00,85.0,70.5,29.77,West,265,0.0,1.0,62,0.00,,OVC200,0.00,246.00,VWS V14.01,2013-06-26 21:25:00,
2013-06-26 17:30:00,85.1,70.6,29.77,West,265,0.0,2.0,62,0.00,,OVC200,0.00,253.00,VWS V14.01,2013-06-26 21:30:00,
2013-06-26 17:35:00,85.2,70.7,29.77,West,265,1.0,1.0,62,0.00,,OVC200,0.00,339.00,VWS V14.01,2013-06-26 21:35:00,
2013-06-26 17:40:00,85.5,70.5,29.77,West,265,1.0,2.0,61,0.00,,OVC200,0.00,450.00,VWS V14.01,2013-06-26 21:40:00,
2013-06-26 17:45:00,85.8,70.3,29.78,West,265,0.0,0.0,60,0.00,,OVC200,0.00,332.00,VWS V14.01,2013-06-26 21:45:00,
2013-06-26 17:50:00,86.0,70.5,29.78,West,265,0.0,0.0,60,0.00,,OVC200,0.00,265.00,VWS V14.01,2013-06-26 21:50:00,
2013-06-26 17:55:00,86.1,69.6,29.78,West,265,1.0,2.0,58,0.00,,OVC200,0.00,162.00,VWS V14.01,2013-06-26 21:55:00,
2013-06-26 18:00:00,86.0,69.5,29.78,West,265,1.0,2.0,58,0.00,,OVC200,0.00,141.00,VWS V14.01,2013-06-26 22:00:00,
2013-06-26 18:05:00,85.9,69.9,29.78,West,265,0.0,0.0,59,0.00,,BKN250,0.00,130.00,VWS V14.01,2013-06-26 22:05:00,
2013-06-26 18:10:00,85.8,72.2,29.78,West,265,0.0,0.0,64,0.00,,BKN250,0.00,128.00,VWS V14.01,2013-06-26 22:10:00,
2013-06-26 18:15:00,85.7,73.9,29.78,West,265,0.0,0.0,68,0.00,,BKN250,0.00,125.00,VWS V14.01,2013-06-26 22:15:00,
2013-06-26 18:20:00,85.5,73.3,29.78,West,265,0.0,0.0,67,0.00,,BKN250,0.00,121.00,VWS V14.01,2013-06-26 22:20:00,
2013-06-26 18:25:00,85.2,73.0,29.78,West,265,0.0,0.0,67,0.00,,BKN250,0.00,102.00,VWS V14.01,2013-06-26 22:25:00,
2013-06-26 18:30:00,84.9,72.3,29.79,West,265,0.0,1.0,66,0.00,,BKN250,0.00,88.00,VWS V14.01,2013-06-26 22:30:00,
2013-06-26 18:35:00,84.6,73.7,29.79,West,265,0.0,0.0,70,0.00,,BKN250,0.00,84.00,VWS V14.01,2013-06-26 22:35:00,
2013-06-26 18:40:00,84.3,73.5,29.79,West,265,0.0,0.0,70,0.00,,BKN250,0.00,83.00,VWS V14.01,2013-06-26 22:40:00,
2013-06-26 18:45:00,83.5,72.7,29.78,West,265,0.0,1.0,70,0.00,,BKN250,0.00,83.00,VWS V14.01,2013-06-26 22:45:00,
2013-06-26 18:50:00,82.5,72.6,29.78,West,265,0.0,0.0,72,0.00,,BKN250,0.00,86.00,VWS V14.01,2013-06-26 22:50:00,
2013-06-26 18:55:00,82.4,72.9,29.78,West,265,0.0,0.0,73,0.00,,BKN250,0.00,95.00,VWS V14.01,2013-06-26 22:55:00,
2013-06-26 19:00:00,82.3,72.8,29.77,West,265,0.0,0.0,73,0.00,,OVC250,0.00,109.00,VWS V14.01,2013-06-26 23:00:00,
2013-06-26 19:05:00,82.1,73.0,29.77,West,265,0.0,0.0,74,0.00,,OVC250,0.00,160.00,VWS V14.01,2013-06-26 23:05:00,
2013-06-26 19:10:00,82.1,73.0,29.77,West,265,0.0,0.0,74,0.00,,OVC250,0.00,144.00,VWS V14.01,2013-06-26 23:10:00,
2013-06-26 19:15:00,82.2,73.1,29.78,West,265,0.0,0.0,74,0.00,,OVC250,0.00,185.00,VWS V14.01,2013-06-26 23:15:00,
2013-06-26 19:20:00,82.2,73.5,29.78,West,265,0.0,0.0,75,0.00,,OVC250,0.00,141.00,VWS V14.01,2013-06-26 23:20:00,
2013-06-26 19:25:00,82.4,74.1,29.78,West,265,0.0,0.0,76,0.00,,OVC250,0.00,114.00,VWS V14.01,2013-06-26 23:25:00,
2013-06-26 19:30:00,82.3,73.2,29.78,West,265,0.0,0.0,74,0.00,,OVC250,0.00,93.00,VWS V14.01,2013-06-26 23:30:00,
2013-06-26 19:35:00,82.3,72.0,29.79,West,265,0.0,0.0,71,0.00,,OVC250,0.00,56.00,VWS V14.01,2013-06-26 23:35:00,
2013-06-26 19:40:00,82.3,72.4,29.79,West,265,1.0,2.0,72,0.00,,OVC250,0.00,44.00,VWS V14.01,2013-06-26 23:40:00,
2013-06-26 19:45:00,82.0,71.7,29.79,West,265,2.0,2.0,71,0.00,,OVC250,0.00,40.00,VWS V14.01,2013-06-26 23:45:00,
2013-06-26 19:50:00,81.8,71.1,29.79,SW,222,2.0,3.0,70,0.00,,OVC250,0.00,42.00,VWS V14.01,2013-06-26 23:50:00,
2013-06-26 19:55:00,81.4,70.3,29.79,SW,232,1.0,1.0,69,0.00,,OVC250,0.00,44.00,VWS V14.01,2013-06-26 23:55:00,
2013-06-26 20:00:00,81.3,71.0,29.78,SW,232,0.0,0.0,71,0.00,,OVC250,0.00,39.00,VWS V14.01,2013-06-27 00:00:00,
2013-06-26 20:05:00,81.1,70.4,29.78,SW,232,0.0,0.0,70,0.00,,OVC100,0.00,28.00,VWS V14.01,2013-06-27 00:05:00,
2013-06-26 20:10:00,80.9,70.2,29.79,SW,232,0.0,1.0,70,0.00,,OVC100,0.00,19.00,VWS V14.01,2013-06-27 00:10:00,
2013-06-26 20:15:00,80.7,70.4,29.79,SW,232,0.0,0.0,71,0.00,,OVC100,0.00,11.00,VWS V14.01,2013-06-27 00:15:00,
2013-06-26 20:20:00,80.4,69.3,29.79,SW,232,1.0,2.0,69,0.00,,OVC100,0.00,9.00,VWS V14.01,2013-06-27 00:20:00,
2013-06-26 20:25:00,80.2,69.5,29.79,SW,232,1.0,2.0,70,0.00,,OVC100,0.00,5.00,VWS V14.01,2013-06-27 00:25:00,
2013-06-26 20:30:00,79.9,69.2,29.79,SW,232,1.0,1.0,70,0.00,,OVC100,0.00,0.00,VWS V14.01,2013-06-27 00:30:00,
2013-06-26 20:35:00,79.7,69.1,29.78,SW,230,0.0,0.0,70,0.00,,OVC100,0.00,0.00,VWS V14.01,2013-06-27 00:35:00,
2013-06-26 20:40:00,79.4,68.3,29.78,SW,230,2.0,2.0,69,0.00,,OVC100,0.00,0.00,VWS V14.01,2013-06-27 00:40:00,
2013-06-26 20:45:00,79.2,68.2,29.78,SW,230,2.0,3.0,69,0.00,,OVC100,0.00,0.00,VWS V14.01,2013-06-27 00:45:00,
2013-06-26 20:50:00,79.0,68.4,29.79,SW,230,2.0,2.0,70,0.00,,OVC100,0.00,0.00,VWS V14.01,2013-06-27 00:50:00,
2013-06-26 20:55:00,78.8,68.6,29.79,SW,229,1.0,1.0,71,0.00,,OVC100,0.00,0.00,VWS V14.01,2013-06-27 00:55:00,
2013-06-26 21:00:00,78.7,68.5,29.79,SW,230,1.0,1.0,71,0.00,,OVC100,0.00,0.00,VWS V14.01,2013-06-27 01:00:00,
2013-06-26 21:05:00,78.6,68.4,29.79,SW,229,0.0,0.0,71,0.00,,OVC250,0.00,0.00,VWS V14.01,2013-06-27 01:05:00,
2013-06-26 21:10:00,78.5,68.3,29.78,SW,229,0.0,2.0,71,0.00,,OVC250,0.00,0.00,VWS V14.01,2013-06-27 01:10:00,
2013-06-26 21:15:00,78.3,68.5,29.79,SW,229,2.0,2.0,72,0.00,,OVC250,0.00,0.00,VWS V14.01,2013-06-27 01:15:00,
2013-06-26 21:20:00,78.1,68.3,29.79,SW,229,1.0,1.0,72,0.00,,OVC250,0.00,0.00,VWS V14.01,2013-06-27 01:20:00,
2013-06-26 21:25:00,77.9,68.2,29.79,SW,229,2.0,2.0,72,0.00,,OVC250,0.00,0.00,VWS V14.01,2013-06-27 01:25:00,
2013-06-26 21:30:00,77.7,68.4,29.80,SW,229,1.0,2.0,73,0.00,,OVC250,0.00,0.00,VWS V14.01,2013-06-27 01:30:00,
2013-06-26 21:35:00,77.5,68.2,29.80,SW,229,2.0,3.0,73,0.00,,OVC250,0.00,0.00,VWS V14.01,2013-06-27 01:35:00,
2013-06-26 21:40:00,77.2,68.3,29.79,SW,229,3.0,3.0,74,0.00,,OVC250,0.00,0.00,VWS V14.01,2013-06-27 01:40:00,
2013-06-26 21:45:00,77.0,68.5,29.79,SW,217,4.0,4.0,75,0.00,,OVC250,0.00,0.00,VWS V14.01,2013-06-27 01:45:00,
2013-06-26 21:50:00,76.8,68.7,29.80,WSW,239,1.0,2.0,76,0.00,,OVC250,0.00,0.00,VWS V14.01,2013-06-27 01:50:00,
2013-06-26 21:55:00,76.6,68.9,29.80,SW,234,4.0,4.0,77,0.00,,OVC250,0.00,0.00,VWS V14.01,2013-06-27 01:55:00,
2013-06-26 22:00:00,76.4,69.0,29.80,SW,226,1.0,1.0,78,0.00,,OVC250,0.00,0.00,VWS V14.01,2013-06-27 02:00:00,
2013-06-26 22:05:00,76.3,68.9,29.80,SW,226,0.0,0.0,78,0.00,,OVC250,0.00,0.00,VWS V14.01,2013-06-27 02:05:00,
2013-06-26 22:10:00,76.1,69.1,29.80,SSW,212,0.0,0.0,79,0.00,,OVC250,0.00,0.00,VWS V14.01,2013-06-27 02:10:00,
2013-06-26 22:15:00,76.0,69.4,29.80,SSW,212,1.0,1.0,80,0.00,,OVC250,0.00,0.00,VWS V14.01,2013-06-27 02:15:00,
2013-06-26 22:20:00,75.8,69.6,29.80,SSW,213,0.0,1.0,81,0.00,,OVC250,0.00,0.00,VWS V14.01,2013-06-27 02:20:00,
2013-06-26 22:25:00,75.6,69.7,29.80,SSW,207,3.0,3.0,82,0.00,,OVC250,0.00,0.00,VWS V14.01,2013-06-27 02:25:00,
2013-06-26 22:30:00,75.5,70.0,29.80,WSW,242,1.0,1.0,83,0.00,,OVC250,0.00,0.00,VWS V14.01,2013-06-27 02:30:00,
2013-06-26 22:35:00,75.3,70.1,29.80,WNW,293,1.0,1.0,84,0.00,,OVC250,0.00,0.00,VWS V14.01,2013-06-27 02:35:00,
2013-06-26 22:40:00,75.1,70.3,29.80,SW,225,4.0,6.0,85,0.00,,OVC250,0.00,0.00,VWS V14.01,2013-06-27 02:40:00,
2013-06-26 22:45:00,74.9,70.1,29.80,SW,234,2.0,3.0,85,0.00,,OVC250,0.00,0.00,VWS V14.01,2013-06-27 02:45:00,
2013-06-26 22:50:00,74.8,70.3,29.81,West,259,2.0,2.0,86,0.00,,OVC250,0.00,0.00,VWS V14.01,2013-06-27 02:50:00,
2013-06-26 22:55:00,74.7,70.6,29.81,SW,234,3.0,3.0,87,0.00,,OVC250,0.00,0.00,VWS V14.01,2013-06-27 02:55:00,
2013-06-26 23:00:00,74.6,70.5,29.81,SW,227,3.0,8.0,87,0.00,,OVC250,0.00,0.00,VWS V14.01,2013-06-27 03:00:00,
2013-06-26 23:05:00,74.4,70.6,29.80,WSW,248,5.0,5.0,88,0.00,,OVC250,0.00,0.00,VWS V14.01,2013-06-27 03:05:00,
2013-06-26 23:10:00,74.3,70.8,29.80,SW,231,3.0,3.0,89,0.00,,OVC250,0.00,0.00,VWS V14.01,2013-06-27 03:10:00,
2013-06-26 23:15:00,74.2,70.8,29.81,SW,236,7.0,7.0,89,0.00,,OVC250,0.00,0.00,VWS V14.01,2013-06-27 03:15:00,
2013-06-26 23:20:00,74.1,70.7,29.80,WSW,245,4.0,7.0,89,0.00,,OVC250,0.00,0.00,VWS V14.01,2013-06-27 03:20:00,
2013-06-26 23:25:00,74.0,70.6,29.80,SW,228,3.0,4.0,89,0.00,,OVC250,0.00,0.00,VWS V14.01,2013-06-27 03:25:00,
2013-06-26 23:30:00,73.9,70.5,29.80,SSW,212,2.0,5.0,89,0.00,,OVC250,0.00,0.00,VWS V14.01,2013-06-27 03:30:00,
2013-06-26 23:35:00,73.8,70.7,29.80,South,169,4.0,5.0,90,0.00,,OVC250,0.00,0.00,VWS V14.01,2013-06-27 03:35:00,
2013-06-26 23:40:00,73.7,70.6,29.81,SW,219,2.0,3.0,90,0.00,,OVC250,0.00,0.00,VWS V14.01,2013-06-27 03:40:00,
2013-06-26 23:45:00,73.7,70.6,29.81,WSW,239,1.0,1.0,90,0.00,,OVC250,0.00,0.00,VWS V14.01,2013-06-27 03:45:00,
2013-06-26 23:50:00,73.6,70.5,29.81,SSW,194,2.0,5.0,90,0.00,,OVC250,0.00,0.00,VWS V14.01,2013-06-27 03:50:00,
2013-06-26 23:55:00,73.6,70.5,29.81,SSW,207,2.0,5.0,90,0.00,,OVC250,0.00,0.00,VWS V14.01,2013-06-27 03:55:00,